THA2615 UUEE-VTSP

Flight info

Callsign THA2615
Flight time N/A
Altitude 33000
Route TOGMO3H TOGMO M56 DENUD M161 MILSO M875 TIGTA/K0904F350 M875 AMDAR/N0496F350 M875 TAPIS L509 NONIB T400 SULOM A466 DPN L759 NIXIG/N0496F370 L759 SATVA SATVA1D
Aircraft B77W/H-SDE1E2E3FGHIJ2J3J4J5M1RWXY/LB1D1

Departure

Time 2026-04-30 21:40
Airport Sheremetyevo International Airport (UUEE)

Arrival

Time N/A
Airport Phuket International Airport (VTSP)
Time Latitude Longitude Altitude Speed Heading
2026-04-30 20:40 55.97747 37.41309 629 ft 0 kts 277°
2026-04-30 21:23 55.97744 37.41346 629 ft 2 kts 277°
2026-04-30 21:24 55.97742 37.41371 629 ft 2 kts 276°
2026-04-30 21:24 55.97743 37.41397 629 ft 2 kts 245°
2026-04-30 21:24 55.97751 37.41419 629 ft 2 kts 220°
2026-04-30 21:24 55.97764 37.41432 629 ft 2 kts 195°
2026-04-30 21:25 55.97792 37.41428 629 ft 2 kts 160°
2026-04-30 21:25 55.97802 37.41422 629 ft 0 kts 162°
2026-04-30 21:25 55.97803 37.41421 629 ft 0 kts 162°
2026-04-30 21:31 55.97773 37.41438 629 ft 3 kts 163°
2026-04-30 21:31 55.97715 37.41484 629 ft 7 kts 131°
2026-04-30 21:32 55.97614 37.41745 624 ft 17 kts 83°
2026-04-30 21:32 55.97642 37.41940 623 ft 12 kts 73°
2026-04-30 21:32 55.97672 37.42123 619 ft 13 kts 73°
2026-04-30 21:32 55.97705 37.42324 618 ft 12 kts 73°
2026-04-30 21:33 55.97730 37.42484 616 ft 12 kts 74°
2026-04-30 21:33 55.97773 37.42781 614 ft 12 kts 77°
2026-04-30 21:33 55.97790 37.42918 614 ft 10 kts 76°
2026-04-30 21:34 55.97806 37.43035 615 ft 9 kts 76°
2026-04-30 21:34 55.97830 37.43218 616 ft 4 kts 75°
2026-04-30 21:34 55.97836 37.43257 617 ft 2 kts 75°
2026-04-30 21:35 55.97840 37.43283 618 ft 1 kts 75°
2026-04-30 21:35 55.97843 37.43308 618 ft 3 kts 75°
2026-04-30 21:35 55.97852 37.43371 619 ft 7 kts 75°
2026-04-30 21:35 55.97870 37.43493 619 ft 11 kts 75°
2026-04-30 21:36 55.97889 37.43623 620 ft 9 kts 75°
2026-04-30 21:36 55.97902 37.43714 622 ft 5 kts 75°
2026-04-30 21:37 55.97912 37.43784 624 ft 2 kts 73°
2026-04-30 21:37 55.97924 37.43854 624 ft 8 kts 73°
2026-04-30 21:37 55.97940 37.43946 624 ft 1 kts 75°
2026-04-30 21:37 55.97942 37.43980 624 ft 3 kts 97°
2026-04-30 21:38 55.97925 37.44023 624 ft 5 kts 143°
2026-04-30 21:38 55.97877 37.44054 623 ft 9 kts 163°
2026-04-30 21:38 55.97803 37.44057 621 ft 11 kts 206°
2026-04-30 21:38 55.97781 37.44011 621 ft 2 kts 243°
2026-04-30 21:39 55.97774 37.43986 621 ft 2 kts 247°
2026-04-30 21:39 55.97768 37.43953 621 ft 8 kts 253°
2026-04-30 21:39 55.97678 37.43367 615 ft 94 kts 255°
2026-04-30 21:39 55.97436 37.41740 631 ft 173 kts 254°
2026-04-30 21:40 55.97118 37.39513 1363 ft 190 kts 255°
2026-04-30 21:40 55.96780 37.37216 2336 ft 207 kts 256°
2026-04-30 21:40 55.96392 37.34683 3445 ft 222 kts 256°
2026-04-30 21:40 55.95971 37.32004 4538 ft 237 kts 257°
2026-04-30 21:41 55.95516 37.29110 5630 ft 251 kts 257°
2026-04-30 21:41 55.95049 37.26152 6249 ft 258 kts 257°
2026-04-30 21:41 55.94551 37.22998 6682 ft 270 kts 257°
2026-04-30 21:41 55.94035 37.19753 7338 ft 274 kts 257°
2026-04-30 21:42 55.93508 37.16444 8018 ft 277 kts 257°
2026-04-30 21:42 55.92981 37.13144 8673 ft 280 kts 257°
2026-04-30 21:42 55.92451 37.09835 9317 ft 282 kts 256°
2026-04-30 21:42 55.91914 37.06472 10008 ft 284 kts 258°
2026-04-30 21:43 55.91754 37.03003 10545 ft 282 kts 282°
2026-04-30 21:43 55.92429 36.99767 11073 ft 279 kts 307°
2026-04-30 21:43 55.93757 36.97323 11640 ft 279 kts 324°
2026-04-30 21:43 55.95355 36.95237 11896 ft 294 kts 327°
2026-04-30 21:44 55.97150 36.93307 12232 ft 302 kts 340°
2026-04-30 21:44 55.99177 36.92506 12733 ft 305 kts 359°
2026-04-30 21:44 56.01256 36.93008 13279 ft 307 kts 19°
2026-04-30 21:44 56.03173 36.94697 13860 ft 309 kts 31°
2026-04-30 21:45 56.04988 36.96754 14452 ft 311 kts 32°
2026-04-30 21:45 56.06799 36.98872 14990 ft 315 kts 32°
2026-04-30 21:45 56.08653 37.01047 15169 ft 317 kts 32°
2026-04-30 21:45 56.10422 37.03294 15189 ft 316 kts 42°
2026-04-30 21:46 56.11785 37.06347 15190 ft 318 kts 60°
2026-04-30 21:46 56.12592 37.10080 15187 ft 321 kts 71°
2026-04-30 21:46 56.13186 37.13939 15195 ft 322 kts 73°
2026-04-30 21:46 56.13747 37.17839 15167 ft 323 kts 73°
2026-04-30 21:47 56.14297 37.21718 15188 ft 323 kts 73°
2026-04-30 21:47 56.14847 37.25606 15204 ft 323 kts 73°
2026-04-30 21:47 56.15348 37.29547 15175 ft 324 kts 82°
2026-04-30 21:47 56.15201 37.33519 15167 ft 328 kts 103°
2026-04-30 21:48 56.14216 37.37291 15435 ft 339 kts 121°
2026-04-30 21:48 56.12832 37.40674 16082 ft 338 kts 125°
2026-04-30 21:48 56.11362 37.43967 16699 ft 339 kts 126°
2026-04-30 21:48 56.09869 37.47255 17154 ft 344 kts 126°
2026-04-30 21:49 56.08358 37.50563 17643 ft 347 kts 126°
2026-04-30 21:49 56.06831 37.53902 18139 ft 350 kts 126°
2026-04-30 21:49 56.05288 37.57272 18648 ft 351 kts 125°
2026-04-30 21:49 56.03725 37.60681 19135 ft 354 kts 125°
2026-04-30 21:50 56.02181 37.64042 19633 ft 356 kts 125°
2026-04-30 21:50 56.00597 37.67489 20071 ft 359 kts 126°
2026-04-30 21:50 55.98999 37.70960 20491 ft 362 kts 126°
2026-04-30 21:50 55.97400 37.74427 20955 ft 364 kts 126°
2026-04-30 21:51 55.95789 37.77915 21350 ft 367 kts 126°
2026-04-30 21:51 55.94175 37.81405 21751 ft 369 kts 126°
2026-04-30 21:51 55.92533 37.84951 22195 ft 370 kts 126°
2026-04-30 21:51 55.90899 37.88473 22596 ft 372 kts 126°
2026-04-30 21:52 55.89250 37.92023 22966 ft 374 kts 126°
2026-04-30 21:52 55.87588 37.95595 23283 ft 377 kts 126°
2026-04-30 21:52 55.85938 37.99137 23638 ft 379 kts 126°
2026-04-30 21:52 55.84271 38.02710 23984 ft 380 kts 126°
2026-04-30 21:53 55.82567 38.06357 24304 ft 382 kts 126°
2026-04-30 21:53 55.80763 38.09795 24611 ft 388 kts 134°
2026-04-30 21:53 55.78589 38.12742 24857 ft 395 kts 144°
2026-04-30 21:53 55.76107 38.15042 24868 ft 408 kts 155°
2026-04-30 21:54 55.73458 38.16845 24878 ft 418 kts 157°
2026-04-30 21:54 55.70669 38.18671 24882 ft 428 kts 157°
2026-04-30 21:54 55.67848 38.20517 24889 ft 438 kts 157°
2026-04-30 21:54 55.64968 38.22403 24894 ft 447 kts 157°
2026-04-30 21:55 55.62018 38.24334 24898 ft 456 kts 157°
2026-04-30 21:55 55.59027 38.26291 24904 ft 465 kts 157°
2026-04-30 21:55 55.55952 38.28300 24968 ft 472 kts 157°
2026-04-30 21:55 55.52908 38.30286 25213 ft 474 kts 157°
2026-04-30 21:56 55.49805 38.32307 25524 ft 475 kts 157°
2026-04-30 21:56 55.46692 38.34332 25796 ft 476 kts 157°
2026-04-30 21:56 55.43578 38.36356 26009 ft 479 kts 157°
2026-04-30 21:56 55.40443 38.38390 26253 ft 481 kts 157°
2026-04-30 21:57 55.37306 38.40422 26519 ft 481 kts 157°
2026-04-30 21:57 55.34166 38.42452 26748 ft 483 kts 157°
2026-04-30 21:57 55.31045 38.44466 26958 ft 485 kts 157°
2026-04-30 21:57 55.27880 38.46507 27179 ft 487 kts 157°
2026-04-30 21:58 55.24706 38.48550 27400 ft 488 kts 157°
2026-04-30 21:58 55.21497 38.50611 27613 ft 490 kts 157°
2026-04-30 21:58 55.18280 38.52674 27812 ft 492 kts 157°
2026-04-30 21:58 55.15067 38.54731 27972 ft 493 kts 157°
2026-04-30 21:59 55.11900 38.56756 28136 ft 495 kts 157°
2026-04-30 21:59 55.08683 38.58808 28304 ft 496 kts 157°
2026-04-30 21:59 55.05458 38.60863 28445 ft 499 kts 157°
2026-04-30 22:00 54.98917 38.65018 28769 ft 501 kts 158°
2026-04-30 22:00 54.92373 38.69161 29072 ft 504 kts 158°
2026-04-30 22:00 54.89111 38.71221 29246 ft 505 kts 158°
2026-04-30 22:01 54.85804 38.73306 29416 ft 506 kts 158°
2026-04-30 22:01 54.82476 38.75400 29595 ft 506 kts 158°
2026-04-30 22:01 54.79147 38.77491 29776 ft 507 kts 158°
2026-04-30 22:01 54.75822 38.79576 29960 ft 507 kts 158°
2026-04-30 22:02 54.72506 38.81651 30131 ft 508 kts 158°
2026-04-30 22:02 54.69166 38.83739 30319 ft 508 kts 158°
2026-04-30 22:02 54.65845 38.85810 30500 ft 508 kts 158°
2026-04-30 22:02 54.62521 38.87880 30674 ft 507 kts 159°
2026-04-30 22:03 54.59225 38.89929 30869 ft 506 kts 159°
2026-04-30 22:03 54.55965 38.91951 30986 ft 503 kts 159°
2026-04-30 22:03 54.49309 38.96072 31172 ft 507 kts 159°
2026-04-30 22:04 54.46080 38.98365 31361 ft 504 kts 152°
2026-04-30 22:04 54.43063 39.01450 31539 ft 501 kts 143°
2026-04-30 22:04 54.38067 39.09633 31778 ft 499 kts 126°
2026-04-30 22:05 54.36163 39.14580 31904 ft 497 kts 117°
2026-04-30 22:05 54.34701 39.19858 32051 ft 495 kts 111°
2026-04-30 22:05 54.33371 39.25317 32222 ft 495 kts 110°
2026-04-30 22:05 54.32063 39.30722 32382 ft 494 kts 111°
2026-04-30 22:06 54.30757 39.36109 32519 ft 494 kts 111°
2026-04-30 22:06 54.28108 39.46989 32815 ft 494 kts 111°
2026-04-30 22:06 54.26780 39.52423 32969 ft 493 kts 111°
2026-04-30 22:07 54.25463 39.57803 33110 ft 493 kts 111°
2026-04-30 22:07 54.24147 39.63162 33158 ft 494 kts 111°
2026-04-30 22:07 54.21478 39.73993 33173 ft 496 kts 112°
2026-04-30 22:08 54.18795 39.84827 33182 ft 496 kts 112°
2026-04-30 22:08 54.16133 39.95525 33181 ft 496 kts 112°
2026-04-30 22:09 54.13438 40.06301 33176 ft 494 kts 112°
2026-04-30 22:09 54.10996 40.17244 33176 ft 493 kts 106°
2026-04-30 22:10 54.09073 40.28397 33173 ft 494 kts 105°
2026-04-30 22:10 54.07136 40.39590 33170 ft 494 kts 105°
2026-04-30 22:11 54.04197 40.56386 33163 ft 496 kts 105°
2026-04-30 22:12 54.02309 40.67081 33161 ft 496 kts 107°
2026-04-30 22:12 54.00317 40.78293 33160 ft 496 kts 107°
2026-04-30 22:13 53.98319 40.89469 33156 ft 495 kts 107°
2026-04-30 22:13 53.96308 41.00642 33156 ft 495 kts 107°
2026-04-30 22:14 53.94388 41.11812 33152 ft 495 kts 105°
2026-04-30 22:14 53.92549 41.23133 33148 ft 496 kts 105°
2026-04-30 22:15 53.90700 41.34387 33144 ft 496 kts 105°
2026-04-30 22:15 53.88843 41.45592 33141 ft 497 kts 105°
2026-04-30 22:16 53.86961 41.56855 33141 ft 497 kts 105°
2026-04-30 22:17 53.83170 41.79299 33143 ft 497 kts 106°
2026-04-30 22:17 53.80291 41.96075 33135 ft 496 kts 106°
2026-04-30 22:18 53.77407 42.12720 33128 ft 496 kts 107°
2026-04-30 22:19 53.74474 42.29487 33123 ft 497 kts 107°
2026-04-30 22:20 53.71530 42.46162 33117 ft 497 kts 107°
2026-04-30 22:20 53.68554 42.62867 33115 ft 496 kts 107°
2026-04-30 22:21 53.66636 42.74076 33117 ft 497 kts 105°
2026-04-30 22:21 53.64902 42.85275 33105 ft 496 kts 105°
2026-04-30 22:22 53.63149 42.96473 33108 ft 498 kts 105°
2026-04-30 22:22 53.61357 43.07787 33110 ft 500 kts 105°
2026-04-30 22:23 53.59561 43.19035 33113 ft 500 kts 105°
2026-04-30 22:23 53.57742 43.30335 33108 ft 499 kts 105°
2026-04-30 22:24 53.55924 43.41547 33104 ft 501 kts 105°
2026-04-30 22:24 53.54082 43.52828 33106 ft 500 kts 106°
2026-04-30 22:25 53.52234 43.64065 33109 ft 500 kts 106°
2026-04-30 22:25 53.50382 43.75254 33106 ft 501 kts 107°
2026-04-30 22:26 53.47580 43.92052 33100 ft 500 kts 107°
2026-04-30 22:27 53.45690 44.03285 33092 ft 499 kts 107°
2026-04-30 22:27 53.42848 44.20044 33089 ft 500 kts 107°
2026-04-30 22:28 53.39975 44.36824 33086 ft 500 kts 107°
2026-04-30 22:29 53.36120 44.59093 33080 ft 500 kts 107°
2026-04-30 22:31 53.29274 44.97960 33070 ft 499 kts 108°
2026-04-30 22:32 53.23743 45.25245 33068 ft 498 kts 111°
2026-04-30 22:33 53.17785 45.52278 33049 ft 499 kts 111°
2026-04-30 22:35 53.11768 45.79366 33031 ft 498 kts 112°
2026-04-30 22:36 53.05787 46.06253 33023 ft 499 kts 112°
2026-04-30 22:37 53.00963 46.27753 33013 ft 498 kts 112°
2026-04-30 22:38 52.96111 46.49154 33001 ft 496 kts 112°
2026-04-30 22:39 52.92445 46.65184 32993 ft 497 kts 113°
2026-04-30 22:40 52.85055 46.97131 32960 ft 496 kts 114°
2026-04-30 22:41 52.79054 47.23808 32961 ft 497 kts 111°
2026-04-30 22:43 52.72164 47.56009 32964 ft 498 kts 112°
2026-04-30 22:44 52.67524 47.77432 32961 ft 497 kts 112°
2026-04-30 22:45 52.60507 48.09424 32962 ft 496 kts 113°
2026-04-30 22:47 52.53402 48.41223 32983 ft 497 kts 113°
2026-04-30 22:48 52.48616 48.62368 32981 ft 496 kts 113°
2026-04-30 22:49 52.41350 48.94080 32989 ft 496 kts 114°
2026-04-30 22:51 52.34022 49.25546 32994 ft 495 kts 115°
2026-04-30 22:52 52.30312 49.41259 32992 ft 495 kts 115°
2026-04-30 22:53 52.25359 49.62097 32986 ft 494 kts 115°
2026-04-30 22:53 52.21617 49.77716 32994 ft 494 kts 116°
2026-04-30 22:55 52.15350 50.03622 32987 ft 492 kts 116°
2026-04-30 22:56 52.10317 50.24209 32990 ft 492 kts 116°
2026-04-30 22:57 52.03970 50.49900 32993 ft 491 kts 116°
2026-04-30 22:58 51.98859 50.70354 32989 ft 489 kts 118°
2026-04-30 22:59 51.93061 50.83381 32995 ft 473 kts 143°
2026-04-30 22:59 51.84639 50.90911 33007 ft 461 kts 167°